Weather History for Kirksville, MO

Change the Weather History Date:

Tuesday, December 18, 2012

  Actual Average Record
Temperature  
Mean Temperature 41 °F 28 °F  
Max Temperature 54 °F 36 °F 65 °F (1939)
Min Temperature 27 °F 20 °F -10 °F (1981)
Degree Days  
Heating Degree Days 24 37  
Month to date heating degree days 438 626  
Since 1 July heating degree days 1708 1847  
Cooling Degree Days 0 0  
Month to date cooling degree days 0 0  
Year to date cooling degree days 1321 939  
Moisture  
Dew Point 30 °F    
Average Humidity 73    
Maximum Humidity 100    
Minimum Humidity 46    
Precipitation  
Precipitation 0.00 in 0.06 in 1.29 in (1957)
Month to date precipitation 0.61 1.10  
Year to date precipitation 27.03 38.66  
Sea Level Pressure  
Sea Level Pressure 29.74 in    
Wind  
Wind Speed 10 mph (SW)    
Max Wind Speed 25 mph    
Max Gust Speed 38 mph    
Visibility 6 miles    
Events      
T = Trace of Precipitation, MM = Missing Value Source: NWS Daily Summary

Daily Weather History Graph

Daily Weather History Graph

Search for Another Location

Airport:

Trip Planner

Search our weather history database for the weather conditions in past years. The results will help you decide how hot, cold, wet, or windy it might be!

Date:

Astronomy

Dec. 18, 2012 Rise Set
Actual Time 7:27 AM CST 4:46 PM CST
Civil Twilight 6:56 AM CST 5:17 PM CST
Nautical Twilight 6:22 AM CST 5:51 PM CST
Astronomical Twilight 5:49 AM CST 6:24 PM CST
Moon 11:07 AM CST (12/18) 11:13 PM CST (12/18)
Length of Visible Light 10h 20m
Length of Day
9h 19m
Waxing Crescent, 35% of the Moon is Illuminated
Dec 18
Waxing Crescent
Dec 19
First Quarter
Dec 28
Full
Jan 4
Last Quarter
Jan 11
New

Hourly Weather History & Observations

Time (CST) Temp. Windchill Dew Point Humidity Pressure Visibility Wind Dir Wind Speed Gust Speed Precip Events Conditions
12:55 AM 30.9 °F 25.2 °F 30.0 °F 96% 29.75 in 2.5 mi SSW 5.8 mph - N/A   Scattered Clouds
1:55 AM 30.9 °F 26.2 °F 30.0 °F 96% 29.74 in 3.0 mi South 4.6 mph - N/A   Clear
2:20 AM 30.2 °F 25.4 °F 30.2 °F 100% 29.71 in 2.5 mi South 4.6 mph - N/A   Clear
2:55 AM 30.9 °F 24.3 °F 30.0 °F 96% 29.71 in 2.5 mi SSE 6.9 mph - N/A   Clear
3:15 AM 32.0 °F 25.6 °F 30.2 °F 93% 29.67 in 3.0 mi SSE 6.9 mph - N/A   Clear
3:24 AM 32.0 °F 24.2 °F 30.2 °F 93% 29.66 in 2.5 mi SSE 9.2 mph - N/A   Clear
3:32 AM 32.0 °F 24.2 °F 30.2 °F 93% 29.66 in 3.0 mi SSE 9.2 mph - N/A   Clear
3:55 AM 30.9 °F 22.2 °F 30.0 °F 96% 29.68 in 3.0 mi SSE 10.4 mph - N/A   Clear
4:55 AM 32.0 °F 24.2 °F 30.9 °F 96% 29.66 in 3.0 mi SSE 9.2 mph - N/A   Mostly Cloudy
5:55 AM 30.9 °F 22.8 °F 30.0 °F 96% 29.65 in 4.0 mi SSE 9.2 mph - N/A   Scattered Clouds
6:55 AM 34.0 °F 26.0 °F 30.9 °F 89% 29.62 in 5.0 mi South 10.4 mph - N/A   Clear
7:55 AM 37.0 °F 27.7 °F 33.1 °F 86% 29.63 in 6.0 mi SSW 16.1 mph 23.0 mph N/A   Clear
8:55 AM 37.9 °F 30.5 °F 33.1 °F 83% 29.63 in 7.0 mi SW 11.5 mph 24.2 mph N/A   Clear
9:55 AM 43.0 °F 35.1 °F 34.0 °F 71% 29.62 in 10.0 mi SW 17.3 mph 24.2 mph N/A   Clear
10:55 AM 46.0 °F 39.0 °F 34.0 °F 63% 29.63 in 10.0 mi WSW 17.3 mph 27.6 mph N/A   Clear
11:55 AM 51.1 °F - 33.1 °F 50% 29.63 in 10.0 mi WSW 12.7 mph 21.9 mph N/A   Clear
12:55 PM 53.1 °F - 33.1 °F 47% 29.62 in 10.0 mi WSW 17.3 mph 26.5 mph N/A   Clear
1:55 PM 53.1 °F - 33.1 °F 47% 29.64 in 10.0 mi West 20.7 mph 32.2 mph N/A   Clear
2:55 PM 48.9 °F - 32.0 °F 52% 29.70 in 10.0 mi WNW 18.4 mph 27.6 mph N/A   Clear
3:55 PM 43.0 °F 36.0 °F 30.9 °F 62% 29.74 in 10.0 mi WNW 13.8 mph 24.2 mph N/A   Clear
4:55 PM 37.0 °F 28.5 °F 28.9 °F 73% 29.78 in 9.0 mi NW 13.8 mph 18.4 mph N/A   Clear
5:55 PM 34.0 °F 27.2 °F 28.0 °F 79% 29.83 in 9.0 mi WNW 8.1 mph - N/A   Clear
6:55 PM 34.0 °F 26.6 °F 28.0 °F 79% 29.86 in 8.0 mi WNW 9.2 mph - N/A   Clear
7:55 PM 30.9 °F 25.2 °F 27.0 °F 85% 29.89 in 7.0 mi NW 5.8 mph - N/A   Clear
8:55 PM 30.9 °F 26.2 °F 27.0 °F 85% 29.88 in 7.0 mi NNW 4.6 mph - N/A   Clear
9:55 PM 30.9 °F - 28.0 °F 89% 29.92 in 7.0 mi Calm Calm - N/A   Clear
10:36 PM 28.4 °F - 26.6 °F 93% 29.90 in 5.0 mi Calm Calm - N/A   Mostly Cloudy
10:55 PM 28.0 °F - 26.1 °F 92% 29.94 in 5.0 mi Calm Calm - N/A   Mostly Cloudy
11:09 PM 28.4 °F - 26.6 °F 93% 29.89 in 6.0 mi Calm Calm - N/A   Partly Cloudy
11:55 PM 27.0 °F - 26.1 °F 96% 29.92 in 5.0 mi Calm Calm - N/A   Clear